DW2180 Weather Reports


time (UTC)temp
C
wind
direction
speed
KPH
gust
KPH
rain 1hr
cm
rain 24hr
cm
rain mn
cm
humidity
%
barometer
mb
20260504001933 11 223 0.0 0.0 0.00 0.00 0.00 55 1011.5
20260504000942 12 223 0.0 0.0 0.00 0.00 0.00 47 1011.4
20260503235930 12 223 0.0 3.2 0.00 0.00 0.00 46 1011.4
20260503234939 13 223 0.0 3.2 0.00 0.00 0.00 41 1011.2
20260503233928 13 256 1.6 9.7 0.00 0.00 0.00 39 1011.1
20260503232937 14 215 1.6 8.0 0.00 0.00 0.00 37 1011.0
20260503231926 14 326 1.6 9.7 0.00 0.00 0.00 35 1011.0
20260503230936 14 227 3.2 12.9 0.00 0.00 0.00 33 1011.0
20260503225929 15 298 6.4 12.9 0.00 0.00 0.00 33 1010.9
20260503224938 15 214 1.6 14.5 0.00 0.00 0.00 33 1010.9
20260503223927 15 287 3.2 11.3 0.00 0.00 0.00 32 1010.8
20260503222936 15 311 8.0 12.9 0.00 0.00 0.00 33 1010.8
20260503220938 15 298 3.2 9.7 0.00 0.00 0.00 34 1010.7
20260503215927 15 212 0.0 8.0 0.00 0.00 0.00 34 1010.6
20260503214937 15 186 3.2 11.3 0.00 0.00 0.00 33 1010.6
20260503213945 15 256 1.6 11.3 0.00 0.00 0.00 32 1010.5
20260503212933 15 331 4.8 14.5 0.00 0.00 0.00 31 1010.6
20260503210938 16 306 3.2 11.3 0.00 0.00 0.00 32 1010.7
20260503205927 16 286 4.8 11.3 0.00 0.00 0.00 32 1010.6
20260503204936 15 330 3.2 11.3 0.00 0.00 0.00 34 1010.6
20260503203946 15 227 8.0 14.5 0.00 0.00 0.00 34 1010.8
20260503202934 15 337 8.0 19.3 0.00 0.00 0.00 34 1010.8
20260503201944 15 353 6.4 14.5 0.00 0.00 0.00 34 1011.0
20260503200934 15 281 3.2 16.1 0.00 0.00 0.00 34 1011.1
20260503195944 15 2 4.8 17.7 0.00 0.00 0.00 32 1011.1
20260503194932 14 6 4.8 20.9 0.00 0.00 0.00 35 1011.1
20260503193926 14 314 4.8 9.7 0.00 0.00 0.00 36 1011.1
20260503191928 14 279 6.4 19.3 0.00 0.00 0.00 36 1011.5
20260503190937 13 298 6.4 14.5 0.00 0.00 0.00 38 1011.4
20260503185926 13 360 8.0 20.9 0.00 0.00 0.00 34 1011.3
20260503184935 13 335 4.8 22.5 0.00 0.00 0.00 38 1011.5
20260503183944 13 313 4.8 16.1 0.00 0.00 0.00 36 1011.4
20260503182934 13 283 3.2 14.5 0.00 0.00 0.00 37 1011.9
20260503175935 13 299 4.8 11.3 0.00 0.00 0.00 38 1011.6
20260503174944 12 314 4.8 16.1 0.00 0.00 0.00 40 1011.8
20260503172944 12 285 8.0 17.7 0.00 0.00 0.00 40 1012.2
20260503171932 12 312 3.2 16.1 0.00 0.00 0.00 39 1012.1
20260503170941 11 210 6.4 12.9 0.00 0.00 0.00 41 1012.1
20260503130931 8 323 4.8 14.5 0.00 0.00 0.00 56 1012.9
20260503080930 6 17 1.6 12.9 0.00 0.03 0.00 63 1010.9
20260503072931 6 34 0.0 8.0 0.00 0.03 0.00 63 1010.8
20260503071942 6 352 0.0 1.6 0.00 0.03 0.00 64 1010.8
20260503070931 7 350 3.2 4.8 0.00 0.03 0.00 63 1010.6
20260503054932 7 56 1.6 11.3 0.00 0.03 0.00 59 1010.5
20260503053940 7 29 1.6 4.8 0.00 0.03 0.00 60 1010.5
20260503052930 7 8 1.6 11.3 0.00 0.03 0.00 60 1010.7
20260503051924 7 45 1.6 4.8 0.00 0.03 0.00 59 1010.9
20260503050935 7 30 0.0 4.8 0.00 0.03 0.00 59 1011.1
20260503045925 8 342 3.2 11.3 0.00 0.03 0.00 58 1011.3
20260503044935 8 73 1.6 8.0 0.00 0.03 0.00 57 1011.2
20260503043925 8 52 1.6 4.8 0.00 0.03 0.00 58 1011.4
20260503042935 8 348 1.6 3.2 0.00 0.03 0.00 59 1011.5
20260503040936 8 52 1.6 4.8 0.00 0.03 0.00 56 1011.6
20260503035925 8 196 4.8 6.4 0.00 0.03 0.03 54 1011.5
20260503034939 8 59 1.6 8.0 0.00 0.03 0.03 57 1011.5
20260503031930 8 92 1.6 3.2 0.00 0.03 0.03 57 1011.7
20260503030940 8 337 0.0 6.4 0.00 0.03 0.03 57 1011.8
20260503025929 8 45 0.0 0.0 0.00 0.03 0.03 60 1011.8
20260503023927 8 45 0.0 0.0 0.00 0.03 0.03 59 1011.8
20260503022936 8 45 0.0 0.0 0.00 0.03 0.03 57 1011.8
20260503021925 8 42 0.0 3.2 0.00 0.03 0.03 55 1011.8
20260503020934 8 21 0.0 1.6 0.00 0.03 0.03 56 1011.8
20260503015928 8 358 0.0 3.2 0.00 0.03 0.03 56 1011.8
20260503014938 9 343 1.6 4.8 0.00 0.03 0.03 56 1011.8
20260503013927 9 99 0.0 8.0 0.00 0.03 0.03 57 1011.9
20260503012936 9 30 0.0 0.0 0.00 0.03 0.03 61 1011.9
20260503011925 9 30 0.0 0.0 0.00 0.03 0.03 63 1011.9
20260503010934 10 30 0.0 0.0 0.00 0.03 0.03 59 1011.8
20260503005924 10 30 0.0 0.0 0.00 0.03 0.03 59 1011.5
20260503002935 10 30 0.0 0.0 0.00 0.03 0.03 54 1011.1